Lexington Weather

Lexington, Massachusetts, USA

68°F
9/23/2021 5:05am 
  • Lexington Conditions: Mostly cloudy
  • Temperature: 67.6°F / 19.8°CWarmer 1.0°F than last hour.
  • Dew Point: 66.7°FIncreased 1.4°Fsince last hour.
  • Relative Humidity: 97%Increased 1.0% since last hour.
  • Wind: Calm, 10-min avg: Calm, gust: 4 mph
  • Barometer: 30.03 in Steady
  • Visibility: 10 miles
  • Rain Today: 0.00 in
  •   

Regional Weather Roundup
for Boston / Norton, MA

        
000
ASUS41 KBOX 230304
RWRBOX

REGIONAL WEATHER ROUNDUP
NATIONAL WEATHER SERVICE BOSTON/NORTON MA
1100 PM EDT WED SEP 22 2021

NOTE:  "FAIR" INDICATES FEW OR NO CLOUDS BELOW 12,000 FEET WITH NO 
SIGNIFICANT WEATHER AND/OR OBSTRUCTIONS TO VISIBILITY.

MAZALL-230400-
EASTERN MASSACHUSETTS
  
CITY           SKY/WX    TMP DP  RH WIND       PRES   REMARKS
BOSTON         PTCLDY    70  66  87 S8        30.12R                  
BEVERLY        CLEAR     67  66  97 SE6       30.11S                  
LAWRENCE       CLEAR     69  67  93 VRB5      30.13S                  
BEDFORD        PTCLDY    69  68  96 S6        30.10S                  
BLUE HILL      NOT AVBL                                               
NORWOOD        CLEAR     67  65  93 CALM      30.11S                  
MARSHFIELD     PTCLDY    68  64  88 CALM      30.12S                  
PLYMOUTH       CLEAR     69  65  86 SE5       30.13S                  
TAUNTON        CLEAR     70  65  84 SE5       30.11S                  
NEW BEDFORD    PTCLDY    72  67  84 S9        30.11S                  
$$

MAZALL-230400-
CAPE COD AND THE ISLANDS
  
CITY           SKY/WX    TMP DP  RH WIND       PRES   REMARKS
FALMOUTH       CLEAR     70  64  83 S10       30.13S                  
HYANNIS        PTCLDY    71  67  87 SE8       30.12S                  
CHATHAM        PTCLDY    67  64  90 SE8       30.16S                  
PROVINCETOWN   CLEAR     69  65  86 SE9       30.14S                  
NANTUCKET        N/A    N/A N/A N/A MISG      30.14S                  
MARTHAS VNYRD  CLEAR     70  66  87 SE12      30.12S                  
$$
 
MAZALL-230400-
CENTRAL AND WESTERN MASSACHUSETTS
  
CITY           SKY/WX    TMP DP  RH WIND       PRES   REMARKS
WORCESTER      CLOUDY    68  67  96 S12       30.12S                  
FITCHBURG      MOCLDY    70  67  90 SE6       30.11S                  
ORANGE         CLOUDY    71  68  90 S8        30.09S                  
SPRINGFIELD    CLOUDY    71  68  89 S10       30.05S                  
WESTFIELD      CLOUDY    71  71 100 S6        30.05F                  
NORTH ADAMS    NOT AVBL                                               
PITTSFIELD     LGT RAIN  70  65  84 VRB6      30.05R                  
$$
 
RIZALL-230400-
RHODE ISLAND
  
CITY           SKY/WX    TMP DP  RH WIND       PRES   REMARKS
PROVIDENCE     PTCLDY    71  69  93 S5        30.11S                  
NEWPORT        CLEAR     70  67  90 SE9       30.11S                  
BLOCK ISLAND   CLEAR     70  67  90 S14       30.10F                  
SMITHFIELD     CLOUDY    68  68 100 VRB3      30.12S                  
WESTERLY       CLEAR     69  69 100 SE7       30.09F                  
$$
 
CTZALL-230400-
CONNECTICUT
  
CITY           SKY/WX    TMP DP  RH WIND       PRES   REMARKS
BRADLEY INTL   CLOUDY    70  70 100 S7        30.06S                  
HARTFORD       CLOUDY    73  69  87 S6        30.06R                  
BRIDGEPORT     CLOUDY    75  70  84 SE12      30.03F                  
DANBURY        CLOUDY    74  69  85 VRB5      30.05S                  
GROTON         CLEAR     71  70  96 SE15      30.07F                  
NEW HAVEN      CLOUDY    76  72  87 SE12      30.05S                  
CHESTER        CLOUDY    72  72 100 VRB8      30.08F                  
MERIDEN        CLOUDY    73  68  84 VRB6      30.05F                  
WILLIMANTIC    CLOUDY    71  68  90 S7        30.09S                  
OXFORD         CLOUDY    71  69  93 SE9G18    30.07S                  
$$

MEZ002-015-021-024-NHZ003-005-008-011-012-014-VTZ005-008-230400-
NORTHERN NEW ENGLAND
  
CITY           SKY/WX    TMP DP  RH WIND       PRES   REMARKS
PORTLAND ME    CLOUDY    66  65  96 S8        30.14R                  
BANGOR ME      MOCLDY    64  61  90 S7        30.17S                  
CONCORD NH     MOCLDY    69  67  93 SE7       30.10S                  
MANCHESTER NH  CLOUDY    72  66  81 S12       30.09R                  
NASHUA NH      CLOUDY    70  70 100 SE5       30.11S                  
PORTSMOUTH NH  PTCLDY    67  65  96 SE5       30.13S                  
JAFFREY NH     CLOUDY    70  68  93 S6        30.11S                  
KEENE NH       CLOUDY    71  68  90 S3        30.08S                  
BURLINGTON VT  PTCLDY    75  59  57 S7        29.97S                  
MT. WASHINGTON DRZL/FOG  54  54 100 S38G48      N/A  VSB 1/16         
$$

NYZ052-076-230400-
EASTERN NEW YORK
  
CITY           SKY/WX    TMP DP  RH WIND       PRES   REMARKS
ALBANY         MOCLDY    71  66  84 SE13      29.98S                  
NEW YORK CITY  MOCLDY    76  67  73 SE14      29.99F                  
$$
 
ANZALL-230400-
MARINE OBSERVATIONS
  
STATION/POSITION TIME  TEMP    WIND        PRES    VSBY  WAVE
                       AIR SEA DIR/SP/G                  HT/PER
                 (UTC) (F)     (DEG/KT/KT) (MB)    (MI)  (FT/S)
BOSTON BUOY      0240      65  160/  8/ 10 1020.4S
BUZZARDS BAY     0200          140/ 17/ 18 1020.5F
NANTUCKET SOUND  0240   73 72  140/ 16/ 17 1020.2F
MASS BAY-STELLWA 0204   67     160/ 10/ 12 1019.6S  1 7/8  3/ 8
ISLE OF SHOALS   0200   68     160/ 15/ 17 1019.5R
S OF BLOCK IS    0226      70                N/A           5/ 6
$$

......................KEY.........................
  SKY/WX - SKY CONDITION/PRESENT WEATHER
  TMP    - TEMPERATURE IN FAHRENHEIT
  DWPT   - DEWPOINT IN FAHRENHEIT
  RH     - RELATIVE HUMIDITY IN PERCENT
  WIND   - DIRECTION AND SPEED IN MPH
  PRES   - MEAN SEA LEVEL PRESSURE IN INCHES OF HG
  WCI    - WIND CHILL INDEX
  VSB    - VISIBILITY IN MILES
  HX     - HEAT INDEX
  TC     - TEMPERATURE IN CELSIUS
  VRB    - VARIABLE WIND DIRECTION
  N/A    - NOT AVAILABLE
  
      

Other recent Regional Weather Roundups

Thu Sep 23, 4:04am

Thu Sep 23, 3:04am

Thu Sep 23, 2:04am

Thu Sep 23, 1:04am

Thu Sep 23, 12:04am

Wed Sep 22, 10:04pm

Wed Sep 22, 9:04pm

Wed Sep 22, 8:04pm

Wed Sep 22, 7:04pm

Wed Sep 22, 6:04pm

Wed Sep 22, 5:04pm

Wed Sep 22, 4:04pm

Wed Sep 22, 3:04pm

Wed Sep 22, 2:04pm

Wed Sep 22, 1:04pm

Wed Sep 22, 12:05pm

Wed Sep 22, 11:04am

Wed Sep 22, 10:04am

Wed Sep 22, 9:04am

Wed Sep 22, 8:04am

Wed Sep 22, 7:04am

Wed Sep 22, 6:04am

Wed Sep 22, 5:04am

Wed Sep 22, 4:04am

Wed Sep 22, 3:04am

Wed Sep 22, 2:04am

Wed Sep 22, 1:04am

Wed Sep 22, 12:04am

Tue Sep 21, 11:04pm

Tue Sep 21, 10:04pm

Tue Sep 21, 9:04pm

Tue Sep 21, 8:04pm

Tue Sep 21, 7:04pm

Tue Sep 21, 6:04pm

Tue Sep 21, 5:04pm

Tue Sep 21, 4:04pm

Tue Sep 21, 3:04pm

Tue Sep 21, 2:04pm

Tue Sep 21, 1:04pm

Tue Sep 21, 12:04pm

Tue Sep 21, 11:04am

Tue Sep 21, 10:04am

Tue Sep 21, 9:04am

Tue Sep 21, 8:04am

Tue Sep 21, 7:04am

Tue Sep 21, 6:04am

Tue Sep 21, 5:04am

Tue Sep 21, 4:04am

Tue Sep 21, 3:04am

Tue Sep 21, 2:04am

Tue Sep 21, 1:04am

Tue Sep 21, 12:04am

Mon Sep 20, 11:04pm

Mon Sep 20, 10:04pm

Mon Sep 20, 9:04pm

Mon Sep 20, 8:04pm

Mon Sep 20, 7:04pm

Mon Sep 20, 6:04pm

Mon Sep 20, 5:04pm

Mon Sep 20, 4:04pm

Mon Sep 20, 3:04pm

Mon Sep 20, 2:04pm

Mon Sep 20, 1:04pm

Mon Sep 20, 12:04pm

Mon Sep 20, 11:04am

Mon Sep 20, 10:04am

Mon Sep 20, 9:04am

Mon Sep 20, 7:04am

Mon Sep 20, 6:04am

Mon Sep 20, 5:04am

Mon Sep 20, 4:04am

Mon Sep 20, 3:04am

Mon Sep 20, 2:04am

Mon Sep 20, 1:04am

Mon Sep 20, 12:04am

Sun Sep 19, 11:04pm

Sun Sep 19, 10:04pm

Sun Sep 19, 9:04pm

Sun Sep 19, 8:04pm

Sun Sep 19, 7:04pm

Sun Sep 19, 6:04pm

Sun Sep 19, 5:04pm

Sun Sep 19, 4:04pm

Sun Sep 19, 3:04pm

Sun Sep 19, 2:05pm

Sun Sep 19, 1:04pm

Sun Sep 19, 12:04pm

Sun Sep 19, 11:04am

Sun Sep 19, 10:05am

Sun Sep 19, 9:04am

Sun Sep 19, 8:04am

Sun Sep 19, 7:04am

Sun Sep 19, 6:04am

Sun Sep 19, 5:04am

Sun Sep 19, 4:04am

Sun Sep 19, 3:04am

Sun Sep 19, 2:04am

Sun Sep 19, 1:04am

Sun Sep 19, 12:04am

Sat Sep 18, 11:05pm

Sat Sep 18, 10:04pm

Sat Sep 18, 9:04pm

Sat Sep 18, 8:04pm

Sat Sep 18, 7:04pm

Sat Sep 18, 6:04pm

Sat Sep 18, 5:04pm

Sat Sep 18, 4:04pm

Sat Sep 18, 3:04pm

Sat Sep 18, 2:04pm

Sat Sep 18, 1:04pm

Sat Sep 18, 12:04pm

Sat Sep 18, 11:04am

Sat Sep 18, 10:04am

Sat Sep 18, 9:04am

Sat Sep 18, 8:04am

Sat Sep 18, 7:04am

Sat Sep 18, 6:04am

Sat Sep 18, 5:04am

Sat Sep 18, 4:04am

Sat Sep 18, 3:04am

Sat Sep 18, 2:04am

Sat Sep 18, 1:04am

Sat Sep 18, 12:04am

Fri Sep 17, 11:04pm

Fri Sep 17, 10:04pm

Fri Sep 17, 9:04pm

Fri Sep 17, 8:04pm

Fri Sep 17, 7:04pm

Fri Sep 17, 6:04pm

Fri Sep 17, 5:04pm

Fri Sep 17, 4:04pm

Fri Sep 17, 3:04pm

Fri Sep 17, 2:04pm

Fri Sep 17, 1:04pm

Fri Sep 17, 12:05pm

Fri Sep 17, 11:04am

Fri Sep 17, 10:04am

Fri Sep 17, 9:04am

Fri Sep 17, 8:04am

Fri Sep 17, 7:04am

Fri Sep 17, 6:04am

Fri Sep 17, 5:04am

Fri Sep 17, 4:04am

Fri Sep 17, 3:04am

Fri Sep 17, 2:04am

Fri Sep 17, 1:04am

Fri Sep 17, 12:04am

Thu Sep 16, 11:04pm

Thu Sep 16, 10:04pm

Thu Sep 16, 9:04pm

Thu Sep 16, 8:04pm

Thu Sep 16, 7:04pm

Thu Sep 16, 6:04pm

Thu Sep 16, 5:04pm

Thu Sep 16, 4:04pm

Thu Sep 16, 3:04pm

Thu Sep 16, 2:04pm

Thu Sep 16, 1:05pm

Thu Sep 16, 12:04pm

Thu Sep 16, 11:05am

Thu Sep 16, 10:05am

Thu Sep 16, 9:04am

Thu Sep 16, 8:04am

Thu Sep 16, 7:04am

Thu Sep 16, 6:04am

Thu Sep 16, 5:04am

Meta data:

ID: 2f2c30f8-6d38-4482-b17d-829b5317edf4
Link: https://api.weather.gov/products/2f2c30f8-6d38-4482-b17d-829b5317edf4